Wind_Speed
13 13 12 9 10 12 12 10 8 8 9 9 9 8 8 6 5 3 3 5 3 12 13 4 6 6 5 8 3 13 6 6 11 11 11 8 9 5 8 9 10 10 9 8 10 10 14 12 7 6 6 7 9 11
12 11 11 9 9 9 10 10 9 8 10 10 9 9 9 7 5 2 1 6 6 9 12 8 11 10 8 6 9 5 6 3 7 6 4 2 2 3 3 8 15 9 12 10 8 5 2 7 7 9 11 11 11 11
14 12 11 10 10 8 8 10 9 8 8 10 10 10 9 7 6 5 5 7 7 11 15 16 12 12 13 12 4 6 1 4 2 5 7 2 3 5 7 11 12 9 3 7 12 10 6 7 10 8 8 9 9 9
12 11 11 10 10 8 8 10 9 8 9 10 10 10 11 9 7 6 3 6 5 6 6 11 7 6 9 11 12 6 2 2 1 3 6 5 7 5 10 3 6 6 2 4 10 15 9 4 5 9 9 5 5 4
11 10 11 11 10 10 8 8 10 10 8 7 10 11 11 10 7 7 7 8 7 5 7 7 3 7 7 9 13 13 8 4 6 6 5 6 8 1 7 6 7 13 7 6 5 6 5 5 7 8 7 2 1 4
10 11 11 10 10 10 10 9 10 11 10 8 8 10 10 9 6 3 5 4 5 5 6 3 2 6 7 9 11 15 15 11 6 8 6 1 3 5 5 7 9 9 5 6 7 2 6 5 5 3 4 5 6 11
9 9 9 10 9 10 10 10 11 11 11 9 8 8 7 8 8 5 1 4 6 4 4 5 6 8 9 11 12 12 15 15 10 11 6 9 8 7 8 7 7 6 2 5 3 3 4 1 2 2 4 8 13 12
9 7 8 8 8 9 8 11 12 12 11 9 8 7 5 7 7 4 6 5 6 3 5 4 3 11 15 13 9 12 12 14 13 11 9 7 9 6 4 8 4 2 3 5 2 2 3 3 1 2 5 9 10 10
8 8 9 7 6 6 8 9 9 9 9 8 5 2 0 4 4 5 8 5 5 4 6 3 2 4 13 15 14 14 12 7 9 9 9 9 6 5 5 6 3 1 1 1 2 1 2 3 7 7 6 8 10 9
7 4 6 6 3 5 7 8 8 7 6 4 6 3 3 5 6 5 3 5 5 6 7 5 5 4 13 12 11 12 12 8 6 10 13 5 9 14 9 6 3 2 2 0 6 4 5 4 2 3 9 11 8 12
5 5 3 3 6 6 7 8 8 4 4 4 3 3 5 7 7 5 6 7 6 4 8 9 10 5 8 7 6 10 5 4 4 7 7 7 10 10 7 8 6 5 5 8 8 7 6 2 4 4 5 7 10 12
2 2 4 5 4 4 6 4 3 4 2 6 5 4 7 5 6 5 5 4 5 6 7 11 11 10 8 2 5 5 4 5 3 6 5 9 5 14 13 11 9 9 9 11 11 12 11 10 9 11 12 13 15 15
3 3 4 4 6 5 4 5 3 5 5 2 3 4 6 7 5 6 9 4 4 8 10 10 8 11 5 8 0 2 6 3 13 3 6 5 13 13 14 12 12 11 13 14 14 14 15 15 15 16 17 17 17 14
4 5 5 6 3 5 5 3 2 3 2 2 4 5 2 5 6 2 1 5 5 7 13 14 15 7 9 6 4 2 3 2 2 5 2 10 17 14 14 13 14 14 14 16 16 15 15 16 17 15 15 14 16 18
4 3 5 4 5 7 6 3 5 6 3 2 2 3 4 10 10 1 3 5 5 8 8 7 6 9 9 4 3 7 3 6 4 3 7 16 17 17 15 17 17 17 17 17 17 17 17 17 18 18 19 17 13 11
5 5 4 3 6 4 1 2 4 1 2 2 3 5 7 11 8 6 3 6 3 6 7 5 1 4 5 2 7 9 3 3 1 7 16 18 19 19 18 19 18 18 17 18 17 17 17 17 18 18 16 13 13 12
3 1 2 5 6 5 4 7 4 3 3 3 5 8 11 12 6 3 6 2 1 5 4 1 6 5 5 4 6 3 4 4 11 19 20 20 20 19 19 19 19 19 19 18 19 18 19 17 14 12 11 9 6 6
0 3 4 6 3 5 4 2 2 3 6 7 3 2 7 8 7 5 3 3 2 0 2 0 6 3 3 2 3 6 9 13 16 20 21 21 21 21 19 20 19 19 19 17 16 15 14 11 9 8 8 8 8 7
2 2 3 4 5 4 2 3 3 3 2 6 7 6 7 7 5 4 1 3 3 3 3 2 3 3 3 6 8 9 12 17 19 19 20 18 19 20 20 19 19 18 17 15 12 10 9 7 6 5 5 5 4 5
0 4 4 3 2 0 2 3 2 3 2 4 6 7 7 5 2 4 4 5 4 3 5 4 3 2 4 5 5 11 15 20 26 25 22 19 18 20 20 20 21 18 15 13 10 9 7 6 5 5 5 6 5 5
5 2 2 2 1 2 3 2 2 2 2 4 8 4 3 5 4 4 6 6 6 5 5 3 3 2 5 6 9 12 19 18 16 17 20 25 24 24 23 24 20 16 7 7 5 6 5 5 5 5 5 5 5 4
3 1 2 2 1 2 3 3 2 2 2 6 3 3 1 3 5 6 6 8 5 5 3 2 0 5 9 11 12 13 15 19 24 25 24 25 25 23 19 15 11 9 7 5 4 5 5 5 5 5 5 5 5 3
4 4 1 1 2 3 2 2 2 2 3 3 3 3 4 4 4 5 5 4 4 4 0 4 7 12 18 18 18 19 21 25 26 26 19 17 15 14 12 9 7 6 5 5 5 5 5 6 7 5 4 4 2 1
5 1 3 2 3 3 2 3 3 2 3 2 3 2 3 3 4 5 3 4 4 7 10 12 12 15 18 16 17 18 20 17 23 21 18 17 14 11 8 7 6 6 5 5 4 4 5 5 4 3 2 1 2 3
3 1 3 4 3 2 2 3 3 2 2 5 2 1 2 4 2 3 3 4 10 12 15 15 14 17 21 25 25 27 27 23 18 15 11 9 9 9 8 7 6 5 4 4 3 4 4 2 2 3 2 3 4 5
3 2 0 7 3 4 4 2 2 5 4 2 1 1 3 3 3 3 1 11 14 17 17 20 21 21 21 19 21 19 19 19 13 9 9 7 5 6 6 6 5 3 3 4 4 4 3 3 2 2 2 4 6 5
2 3 3 2 2 3 2 3 2 2 1 1 2 2 2 3 2 2 7 8 12 9 9 6 8 10 11 11 10 10 10 9 7 6 6 5 4 4 4 4 4 4 5 5 4 4 3 2 2 2 4 5 6 8
3 5 2 4 2 2 1 2 2 1 0 1 3 0 2 2 2 7 8 11 9 8 7 7 8 8 9 9 10 11 9 8 9 7 7 6 5 5 5 5 6 11 8 6 4 2 1 3 5 6 8 9 10 10
1 3 0 2 2 3 2 4 2 1 2 3 2 3 3 3 8 15 16 9 8 7 8 8 9 10 10 10 11 11 11 10 9 8 6 5 5 4 3 2 2 3 1 2 5 3 4 6 6 7 8 8 9 10
3 3 1 3 5 5 6 4 4 5 4 3 5 12 16 12 14 12 12 10 9 9 9 10 10 9 10 10 10 8 7 5 4 3 3 2 2 3 3 4 3 3 4 3 2 5 8 7 7 8 9 9 10 11
3 1 4 5 3 3 5 6 6 6 9 12 15 18 14 12 11 10 10 10 8 8 9 10 9 8 8 8 7 6 5 3 3 3 3 2 2 3 3 4 3 2 2 2 1 1 3 5 6 8 9 11 14 15
3 2 6 3 3 3 6 11 11 12 14 16 13 14 13 12 7 8 12 11 7 8 7 7 7 7 5 5 4 2 4 4 4 3 4 2 3 4 5 4 4 2 1 2 3 4 6 8 10 11 13 15 16 16
12 13 12 9 4 3 7 7 8 7 7 6 6 7 7 4 3 8 13 13 7 6 6 6 6 5 7 6 4 4 4 7 10 7 7 7 8 8 5 2 3 3 3 4 6 7 8 11 13 14 15 16 17 17
Wind_Direction
294 285 286 298 305 312 302 304 289 271 268 270 281 290 283 287 299 315 242 285 267 275 284 297 273 282 266 268 355 133 184 216 190 232 229 229 244 169 229 259 260 252 253 241 249 266 260 17 281 303 16 341 358 349
277 282 284 290 302 324 317 309 298 285 268 267 270 279 281 269 279 303 302 314 286 257 273 290 262 246 263 325 329 167 28 146 22 220 257 358 231 263 280 242 226 242 275 305 311 14 102 3 342 335 332 326 327 333
281 271 279 278 291 295 315 308 292 287 284 277 270 275 281 267 263 264 273 298 309 270 277 248 253 235 235 233 249 300 147 46 81 345 338 3 299 309 254 228 276 192 186 264 288 284 339 342 322 311 314 311 319 317
274 279 266 275 275 289 294 311 325 303 288 275 274 267 267 263 257 260 254 273 298 285 274 178 205 227 214 216 221 222 31 189 104 260 256 256 236 200 256 342 279 37 155 258 268 258 296 268 1 321 309 312 317 333
277 278 264 270 276 278 283 287 309 314 312 293 268 266 262 262 264 264 269 261 257 263 317 335 164 207 214 203 206 206 212 221 211 204 228 238 250 7 257 300 267 229 255 244 24 36 335 335 327 313 276 233 17 135
269 269 260 260 279 273 282 280 293 302 303 301 273 263 258 257 250 264 209 231 225 233 288 257 142 175 182 189 188 197 205 214 230 237 248 164 6 255 259 235 202 82 45 336 290 352 333 300 336 295 215 166 139 129
288 274 255 263 282 283 271 281 294 296 299 289 287 276 253 248 223 220 7 197 179 178 251 248 181 168 172 169 178 189 197 206 217 223 249 241 168 213 266 269 76 81 315 291 288 231 238 273 68 36 186 164 143 140
287 264 257 268 274 288 279 281 288 288 286 286 281 279 255 248 221 246 252 188 175 222 241 263 135 145 169 161 162 169 175 190 204 235 212 232 157 223 260 77 94 54 285 193 121 234 292 242 218 125 159 160 165 158
280 271 253 272 286 294 297 297 293 281 277 276 282 231 351 202 175 201 244 209 212 226 299 236 234 158 182 185 146 179 171 185 182 214 232 214 225 203 56 89 96 78 166 330 302 265 295 263 208 187 192 200 175 180
271 249 267 248 268 326 317 295 298 295 281 244 142 118 299 216 204 169 158 183 205 215 225 257 178 204 199 162 167 166 202 185 186 207 203 212 240 110 121 103 125 126 155 25 221 118 79 43 83 188 213 217 196 170
258 242 232 242 279 303 320 297 297 327 119 137 189 193 216 190 169 214 222 205 172 225 206 228 225 181 214 215 173 180 185 191 222 164 200 205 217 147 143 128 126 113 109 94 89 86 95 88 103 108 121 145 140 148
176 216 263 268 287 300 324 305 321 108 224 191 193 153 161 217 220 218 189 186 211 205 184 204 189 209 170 204 215 181 173 211 76 161 207 240 105 131 138 131 126 117 108 99 98 97 102 101 98 102 115 101 111 123
249 265 283 295 299 285 317 290 295 194 188 188 161 190 208 196 208 204 186 187 194 188 172 176 164 179 199 232 210 254 156 204 132 234 215 84 128 135 134 136 125 116 109 104 103 102 99 97 94 93 98 97 103 97
259 263 295 311 337 339 322 260 213 168 167 224 206 220 262 189 221 207 196 140 165 199 165 180 175 177 183 213 221 126 112 50 209 229 73 134 145 138 136 140 133 121 115 112 107 109 104 100 98 93 94 98 106 106
249 282 306 305 323 314 291 259 183 158 280 257 283 271 209 270 288 196 178 156 151 137 156 174 218 194 171 208 239 70 249 191 220 96 106 127 136 138 137 127 124 125 119 116 115 112 107 104 100 98 99 103 101 98
248 277 262 295 329 329 263 140 152 135 286 297 252 279 288 277 256 207 189 179 162 169 158 158 244 189 254 155 189 212 191 96 106 94 127 140 135 135 134 132 128 129 126 122 119 117 116 115 118 117 114 101 108 122
182 265 286 318 298 297 161 129 184 233 244 238 241 265 271 291 304 345 340 149 207 205 172 218 198 207 231 137 209 103 46 75 115 123 137 134 133 129 126 128 130 129 125 123 120 120 119 116 114 114 115 112 109 104
315 283 313 309 154 97 155 144 236 239 234 227 245 282 307 292 292 322 318 344 335 193 118 111 319 285 312 358 75 87 93 120 121 122 130 136 136 134 135 133 130 126 123 121 122 120 120 118 110 109 109 110 99 91
262 293 321 127 141 126 167 205 227 274 315 332 288 285 321 292 278 277 207 118 85 74 88 31 58 350 26 56 89 103 124 131 113 120 128 131 129 130 132 130 128 127 126 125 124 124 123 119 118 115 118 119 116 109
60 116 105 85 126 193 247 201 235 267 328 301 298 326 304 273 201 92 92 91 79 66 64 26 49 18 25 27 100 137 141 133 129 114 105 114 123 124 122 126 122 120 123 125 122 116 111 106 102 111 126 124 115 108
78 61 80 46 244 235 255 279 239 247 304 285 290 300 296 185 193 127 58 51 56 37 49 36 46 74 102 100 102 135 147 142 141 146 141 132 136 138 137 137 132 128 135 131 123 115 111 116 111 109 111 119 118 118
350 338 115 329 315 303 285 245 244 288 295 293 326 288 235 174 97 67 71 49 59 26 359 327 193 118 124 121 114 116 137 144 137 132 131 131 133 136 136 132 131 143 137 133 133 130 125 119 118 126 130 122 115 128
9 8 332 276 272 230 236 202 246 236 227 171 215 348 24 32 44 44 77 53 65 13 15 124 120 130 120 124 133 131 138 138 137 132 130 136 136 138 143 149 150 146 140 130 132 135 147 131 130 132 133 124 149 305
333 282 280 272 246 279 196 227 185 231 227 102 72 26 337 53 47 53 58 46 56 96 102 109 112 125 124 119 112 122 135 135 135 132 130 133 137 140 142 139 131 132 139 138 141 146 137 158 158 135 169 213 298 309
292 265 260 268 253 249 42 6 359 358 69 72 57 34 59 65 68 54 34 23 96 97 102 107 115 123 121 116 118 121 122 119 117 113 116 145 142 140 138 136 131 132 139 150 154 157 161 172 171 221 252 283 294 303
267 195 285 356 36 39 36 315 358 19 43 61 31 30 69 67 67 70 76 136 116 102 103 103 105 106 106 109 116 126 128 122 105 114 119 129 139 160 167 170 168 158 154 161 175 175 185 205 224 251 266 283 290 326
282 49 55 351 23 102 100 26 29 31 8 223 150 165 128 88 93 150 146 128 125 118 121 140 132 122 125 130 132 140 140 138 146 146 140 137 129 129 151 167 154 150 149 151 154 160 173 188 234 272 283 291 295 300
341 47 66 340 58 58 150 220 228 188 50 265 178 77 88 98 120 158 155 155 131 133 127 114 120 129 138 145 150 150 150 150 136 132 126 127 127 130 124 129 148 144 146 153 157 155 249 279 283 289 292 293 297 300
203 156 220 14 163 174 20 23 68 57 293 265 182 103 96 103 139 154 149 146 142 133 131 127 121 121 121 124 132 142 146 148 152 159 183 158 167 162 152 152 111 121 158 283 287 321 298 293 280 288 294 297 300 304
143 168 249 51 40 29 29 50 48 42 26 38 109 123 119 122 124 146 146 145 145 145 145 143 142 141 141 141 142 145 151 158 172 186 205 219 201 201 204 201 210 219 238 247 267 286 328 351 334 328 328 321 319 317
146 120 66 59 71 38 56 62 63 82 84 95 124 129 129 127 131 138 153 154 152 149 150 156 156 154 149 148 147 161 161 185 195 174 154 161 187 189 188 194 186 172 172 171 200 265 297 321 318 315 315 316 314 313
80 118 121 114 110 88 77 86 85 90 104 107 111 124 136 139 142 169 173 164 154 164 165 166 169 170 170 169 165 195 169 175 168 149 135 139 161 153 133 143 153 177 218 266 290 299 301 309 313 312 313 314 316 315
106 111 117 117 135 160 174 128 108 89 79 100 115 130 144 149 164 185 186 176 185 185 184 193 194 190 192 186 189 184 165 182 185 199 206 179 170 169 155 201 236 259 278 292 296 301 305 310 311 312 313 315 314 315
Height
1497 1496 1495 1494 1493 1491 1489 1487 1486 1485 1485 1485 1484 1484 1484 1483 1482 1481 1483 1480 1481 1474 1464 1466 1465 1461 1457 1452 1455 1454 1458 1456 1453 1454 1452 1448 1452 1453 1458 1459 1463 1469 1469 1466 1464 1472 1480 1463 1461 1466 1469 1469 1471 1472
1494 1493 1492 1491 1490 1489 1487 1486 1484 1483 1482 1482 1482 1482 1482 1482 1481 1481 1483 1480 1480 1479 1466 1467 1466 1465 1464 1464 1461 1455 1454 1452 1455 1452 1448 1448 1457 1454 1460 1469 1456 1473 1464 1465 1463 1466 1466 1468 1469 1469 1469 1471 1471 1472
1490 1489 1489 1488 1488 1487 1485 1484 1482 1481 1480 1479 1479 1479 1480 1480 1479 1479 1479 1479 1479 1475 1467 1464 1461 1463 1464 1465 1466 1463 1462 1464 1464 1466 1459 1455 1463 1460 1466 1462 1461 1461 1464 1469 1466 1460 1461 1466 1469 1470 1472 1471 1471 1471
1486 1485 1485 1485 1484 1484 1483 1482 1481 1480 1479 1477 1476 1477 1478 1478 1477 1478 1478 1480 1479 1477 1466 1454 1458 1461 1462 1464 1466 1468 1469 1470 1470 1470 1466 1465 1466 1466 1465 1460 1463 1460 1468 1466 1466 1463 1465 1468 1472 1474 1473 1472 1472 1472
1482 1482 1482 1482 1481 1481 1481 1480 1480 1478 1477 1476 1475 1474 1475 1475 1475 1475 1475 1477 1478 1481 1465 1456 1456 1458 1460 1462 1465 1468 1470 1469 1470 1470 1469 1466 1464 1469 1466 1466 1463 1459 1462 1465 1469 1471 1474 1473 1475 1475 1473 1473 1473 1473
1479 1479 1478 1478 1478 1478 1478 1478 1477 1476 1475 1474 1473 1473 1473 1474 1475 1474 1476 1476 1476 1476 1474 1456 1455 1458 1459 1461 1464 1467 1470 1472 1471 1468 1464 1464 1467 1473 1462 1461 1457 1462 1470 1474 1473 1473 1475 1474 1474 1474 1474 1474 1475 1475
1476 1476 1476 1476 1475 1475 1475 1475 1475 1474 1473 1472 1471 1471 1471 1472 1472 1473 1475 1474 1472 1474 1475 1461 1450 1456 1458 1461 1464 1466 1469 1470 1471 1470 1467 1465 1468 1475 1464 1460 1460 1464 1472 1475 1474 1475 1474 1473 1473 1474 1474 1474 1478 1479
1474 1474 1474 1473 1473 1472 1472 1472 1472 1471 1471 1470 1470 1469 1469 1470 1471 1472 1471 1472 1473 1474 1472 1458 1447 1452 1456 1457 1460 1464 1466 1469 1471 1467 1466 1465 1467 1471 1464 1462 1467 1471 1474 1474 1474 1474 1473 1475 1476 1476 1475 1477 1478 1480
1471 1471 1471 1471 1471 1470 1470 1469 1468 1468 1467 1468 1467 1467 1468 1470 1471 1471 1471 1471 1471 1475 1467 1455 1445 1453 1453 1452 1455 1462 1462 1464 1462 1465 1463 1464 1459 1462 1463 1466 1470 1474 1474 1474 1475 1474 1474 1473 1474 1476 1477 1475 1477 1480
1468 1468 1469 1469 1469 1469 1468 1467 1466 1466 1465 1465 1467 1468 1468 1466 1468 1469 1471 1472 1472 1470 1468 1457 1446 1452 1447 1446 1451 1456 1456 1452 1458 1457 1457 1459 1457 1462 1466 1470 1473 1474 1474 1474 1473 1473 1475 1475 1475 1476 1476 1477 1476 1479
1466 1467 1467 1467 1468 1467 1466 1465 1465 1464 1464 1466 1467 1467 1467 1467 1468 1469 1466 1463 1461 1459 1455 1451 1446 1450 1448 1444 1444 1445 1446 1446 1450 1451 1455 1453 1453 1459 1467 1471 1473 1474 1475 1475 1475 1475 1476 1480 1480 1480 1478 1478 1478 1482
1466 1466 1466 1466 1466 1465 1465 1464 1464 1464 1466 1466 1465 1466 1466 1466 1465 1461 1456 1455 1453 1449 1443 1445 1447 1447 1446 1447 1445 1444 1445 1445 1451 1448 1448 1446 1457 1462 1467 1471 1474 1475 1476 1476 1478 1479 1481 1483 1483 1481 1480 1482 1482 1485
1465 1465 1465 1464 1464 1464 1463 1463 1463 1463 1464 1464 1465 1465 1461 1459 1457 1448 1444 1444 1440 1438 1439 1442 1445 1447 1448 1446 1440 1439 1446 1443 1447 1453 1444 1451 1462 1466 1468 1472 1475 1477 1478 1479 1481 1483 1484 1485 1486 1486 1487 1487 1488 1489
1464 1464 1464 1463 1462 1462 1462 1461 1461 1463 1464 1464 1463 1457 1453 1445 1441 1431 1430 1434 1438 1434 1436 1440 1440 1440 1441 1440 1437 1429 1435 1439 1445 1445 1445 1455 1463 1468 1470 1473 1476 1478 1481 1483 1485 1486 1487 1489 1489 1490 1490 1491 1491 1492
1462 1463 1462 1462 1461 1461 1461 1461 1461 1463 1462 1460 1460 1453 1449 1446 1441 1439 1439 1439 1439 1440 1442 1443 1443 1438 1436 1442 1430 1432 1447 1438 1433 1440 1445 1459 1464 1469 1472 1475 1478 1481 1484 1487 1489 1490 1492 1493 1494 1494 1494 1495 1495 1495
1461 1461 1461 1461 1460 1459 1459 1460 1462 1463 1462 1461 1460 1456 1450 1445 1440 1437 1440 1441 1441 1442 1443 1444 1446 1440 1435 1424 1427 1430 1423 1432 1437 1443 1456 1464 1467 1471 1475 1478 1481 1484 1487 1490 1492 1494 1495 1495 1496 1497 1498 1500 1501 1500
1460 1460 1460 1460 1459 1458 1458 1461 1463 1463 1462 1459 1456 1454 1453 1449 1445 1443 1442 1442 1442 1441 1441 1444 1441 1436 1430 1432 1432 1426 1441 1446 1452 1457 1462 1466 1470 1474 1478 1482 1485 1488 1489 1491 1493 1495 1497 1499 1500 1501 1501 1502 1503 1503
1460 1459 1459 1458 1458 1459 1461 1461 1462 1461 1457 1454 1454 1453 1452 1451 1448 1445 1444 1443 1443 1442 1443 1445 1444 1436 1431 1427 1434 1446 1453 1457 1458 1461 1465 1470 1474 1478 1482 1485 1488 1491 1493 1496 1498 1501 1502 1504 1504 1505 1505 1505 1506 1506
1460 1460 1458 1458 1459 1459 1461 1462 1461 1458 1454 1453 1453 1452 1450 1448 1447 1446 1445 1444 1445 1444 1444 1445 1447 1448 1448 1447 1452 1454 1456 1459 1461 1466 1470 1474 1477 1480 1484 1488 1491 1494 1497 1499 1502 1503 1504 1505 1506 1506 1506 1507 1508 1508
1459 1459 1460 1460 1460 1461 1460 1460 1459 1458 1456 1455 1453 1451 1449 1447 1446 1446 1445 1446 1446 1447 1449 1453 1454 1455 1455 1454 1456 1458 1459 1462 1464 1468 1473 1477 1481 1483 1487 1491 1494 1497 1500 1502 1503 1504 1505 1506 1506 1506 1507 1507 1508 1509
1461 1461 1461 1460 1461 1460 1460 1458 1457 1456 1456 1453 1451 1449 1449 1447 1447 1447 1448 1447 1448 1453 1456 1458 1459 1459 1459 1458 1459 1460 1463 1466 1469 1472 1474 1477 1483 1486 1489 1492 1494 1496 1500 1502 1504 1505 1506 1506 1507 1507 1508 1508 1509 1509
1463 1462 1462 1461 1461 1460 1458 1457 1457 1456 1455 1452 1449 1447 1447 1447 1447 1450 1452 1453 1457 1459 1460 1461 1460 1460 1460 1462 1463 1464 1466 1468 1471 1475 1479 1482 1485 1488 1492 1495 1498 1500 1502 1503 1504 1505 1506 1507 1507 1508 1508 1509 1510 1510
1462 1462 1461 1461 1461 1459 1458 1456 1455 1453 1452 1452 1451 1449 1449 1451 1453 1454 1458 1461 1462 1463 1463 1462 1461 1461 1463 1464 1466 1467 1470 1473 1476 1480 1485 1488 1491 1494 1496 1498 1499 1501 1502 1504 1505 1506 1507 1506 1507 1508 1509 1510 1510 1510
1463 1463 1461 1459 1458 1456 1454 1453 1453 1452 1449 1446 1451 1455 1454 1454 1457 1459 1462 1465 1467 1466 1465 1464 1465 1464 1466 1467 1469 1471 1475 1478 1481 1485 1487 1490 1493 1495 1497 1499 1500 1501 1503 1504 1505 1506 1507 1508 1507 1509 1509 1509 1509 1509
1466 1463 1462 1458 1454 1453 1451 1451 1451 1449 1446 1452 1456 1457 1455 1458 1462 1464 1467 1469 1469 1469 1468 1469 1468 1469 1465 1469 1475 1477 1480 1483 1487 1489 1491 1494 1495 1497 1499 1500 1502 1503 1504 1505 1505 1506 1507 1508 1508 1509 1509 1508 1509 1508
1464 1460 1460 1455 1455 1455 1458 1457 1455 1455 1454 1459 1459 1460 1459 1461 1465 1471 1472 1473 1474 1474 1475 1475 1475 1476 1479 1480 1481 1483 1485 1485 1489 1494 1496 1497 1498 1498 1500 1501 1502 1503 1503 1504 1505 1506 1507 1508 1508 1508 1508 1507 1507 1506
1461 1458 1460 1459 1459 1459 1461 1461 1461 1462 1461 1460 1459 1460 1459 1465 1469 1473 1474 1476 1477 1479 1480 1480 1481 1482 1484 1485 1488 1489 1491 1493 1495 1496 1498 1499 1499 1499 1501 1501 1502 1502 1503 1504 1505 1506 1507 1507 1507 1507 1507 1506 1505 1504
1462 1461 1462 1462 1461 1461 1461 1462 1460 1460 1460 1460 1459 1458 1457 1462 1469 1471 1474 1476 1479 1481 1482 1483 1483 1485 1486 1488 1489 1491 1493 1494 1496 1498 1499 1500 1500 1501 1501 1501 1500 1501 1504 1504 1505 1506 1506 1506 1506 1505 1505 1504 1503 1502
1462 1463 1462 1460 1460 1460 1460 1460 1460 1461 1460 1458 1454 1456 1466 1468 1470 1471 1475 1478 1480 1482 1483 1484 1486 1487 1488 1489 1491 1492 1494 1495 1497 1498 1498 1498 1499 1500 1501 1501 1501 1502 1503 1503 1502 1503 1504 1503 1503 1502 1501 1501 1500 1499
1462 1462 1461 1459 1462 1462 1463 1462 1461 1460 1460 1459 1460 1464 1467 1470 1472 1476 1479 1481 1483 1484 1485 1486 1487 1489 1490 1491 1492 1494 1495 1495 1496 1496 1497 1497 1498 1499 1500 1501 1501 1502 1502 1503 1503 1502 1501 1501 1500 1499 1498 1498 1497 1496
1461 1461 1462 1465 1467 1466 1464 1463 1462 1462 1461 1462 1464 1466 1469 1473 1477 1480 1482 1483 1484 1485 1486 1487 1488 1489 1490 1491 1493 1494 1495 1496 1496 1496 1497 1498 1498 1499 1499 1500 1500 1501 1501 1502 1502 1502 1502 1501 1500 1499 1497 1496 1494 1492
1462 1462 1464 1467 1468 1468 1467 1467 1466 1466 1467 1469 1471 1472 1474 1477 1479 1481 1481 1482 1484 1485 1486 1487 1488 1489 1491 1491 1492 1493 1494 1495 1496 1496 1497 1498 1498 1498 1499 1500 1500 1501 1501 1501 1501 1501 1500 1499 1498 1496 1494 1492 1491 1489
1464 1465 1466 1467 1468 1468 1468 1467 1469 1471 1474 1475 1475 1476 1478 1479 1480 1481 1481 1483 1485 1485 1486 1487 1488 1489 1490 1492 1493 1494 1494 1495 1494 1495 1496 1496 1496 1497 1499 1500 1500 1500 1500 1500 1499 1499 1498 1496 1495 1493 1491 1489 1487 1485